Hailey, ID

9:09 PM MDT on May 25, 2017 (GMT -0600)
Friedman Memorial

Weather History for KSUN - July, 2013

Change the Weather History Date:

Wednesday, July 3, 2013

  Actual Average Record
Temperature  
Mean Temperature 76 °F -  
Max Temperature 87 °F 80 °F 100 °F (2001)
Min Temperature 64 °F 50 °F 41 °F (1999)
Cooling Degree Days 10    
Growing Degree Days 26 (Base 50)    
Moisture  
Dew Point 54 °F    
Average Humidity 56    
Maximum Humidity 69    
Minimum Humidity 25    
Precipitation  
Precipitation 0.00 in - - ()
Sea Level Pressure  
Sea Level Pressure 30.18 in    
Wind  
Wind Speed 11 mph (NW)    
Max Wind Speed 18 mph    
Max Gust Speed 23 mph    
Visibility 10 miles    
Events      
Averages and records for this station are not official NWS values.
T = Trace of Precipitation, MM = Missing Value Source: NWS Daily Summary

Daily Weather History Graph

Daily Weather History Graph

Search for Another Location

Airport or City:

Trip Planner

Search our weather history database for the weather conditions in past years. The results will help you decide how hot, cold, wet, or windy it might be!

Date:

Astronomy

Jul. 03, 2013 Rise Set
Actual Time 6:01 AM MDT 9:21 PM MDT
Civil Twilight 5:25 AM MDT 9:56 PM MDT
Nautical Twilight 4:39 AM MDT 10:42 PM MDT
Astronomical Twilight 3:42 AM MDT 11:39 PM MDT
Moon 2:45 AM MDT (7/3) 5:32 PM MDT (7/3)
Length of Visible Light 16h 30m
Length of Day
15h 20m
Waning Crescent, 18% of the Moon is Illuminated
Jul 3
Waning Crescent
Jul 8
New
Jul 15
First Quarter
Jul 22
Full
Jul 29
Last Quarter

Hourly Weather History & Observations

Time (MDT) Temp. Heat Index Dew Point Humidity Pressure Visibility Wind Dir Wind Speed Gust Speed Precip Events Conditions
12:15 AM 68.0 °F - 55.4 °F 64% 30.25 in 10.0 mi NW 6.9 mph - N/A   Clear
12:35 AM 68.0 °F - 55.4 °F 64% 30.24 in 10.0 mi WNW 8.1 mph - N/A   Clear
12:55 AM 66.2 °F - 55.4 °F 68% 30.24 in 10.0 mi WNW 11.5 mph - N/A   Clear
1:15 AM 66.2 °F - 55.4 °F 68% 30.22 in 10.0 mi NW 12.7 mph - N/A   Clear
1:35 AM 66.2 °F - 53.6 °F 64% 30.22 in 10.0 mi NW 12.7 mph - N/A   Clear
1:55 AM 68.0 °F - 53.6 °F 60% 30.22 in 10.0 mi WNW 12.7 mph 20.7 mph N/A   Clear
2:15 AM 66.2 °F - 53.6 °F 64% 30.22 in 10.0 mi NW 13.8 mph - N/A   Scattered Clouds
2:35 AM 66.2 °F - 53.6 °F 64% 30.21 in 10.0 mi NW 15.0 mph - N/A   Scattered Clouds
2:55 AM 68.0 °F - 51.8 °F 56% 30.21 in 10.0 mi NW 16.1 mph 23.0 mph N/A   Clear
3:15 AM 66.2 °F - 51.8 °F 60% 30.20 in 10.0 mi NW 15.0 mph - N/A   Clear
3:35 AM 66.2 °F - 51.8 °F 60% 30.21 in 10.0 mi NNW 18.4 mph 23.0 mph N/A   Clear
3:55 AM 68.0 °F - 51.8 °F 56% 30.21 in 10.0 mi NW 16.1 mph - N/A   Clear
4:15 AM 68.0 °F - 51.8 °F 56% 30.21 in 10.0 mi NNW 11.5 mph - N/A   Clear
4:35 AM 66.2 °F - 51.8 °F 60% 30.20 in 10.0 mi NNW 12.7 mph - N/A   Clear
4:55 AM 64.4 °F - 51.8 °F 64% 30.21 in 10.0 mi NNW 11.5 mph - N/A   Clear
5:15 AM 64.4 °F - 51.8 °F 64% 30.22 in 10.0 mi WNW 10.4 mph - N/A   Clear
5:35 AM 64.4 °F - 51.8 °F 64% 30.21 in 10.0 mi NW 12.7 mph - N/A   Clear
5:55 AM 64.4 °F - 51.8 °F 64% 30.20 in 10.0 mi North 11.5 mph - N/A   Clear
6:15 AM 64.4 °F - 51.8 °F 64% 30.19 in 10.0 mi NNW 15.0 mph - N/A   Clear
6:35 AM 64.4 °F - 51.8 °F 64% 30.19 in 10.0 mi NNW 15.0 mph - N/A   Clear
6:47 AM 66.2 °F - 51.8 °F 60% 30.20 in 10.0 mi WNW 11.5 mph - N/A   Scattered Clouds
6:55 AM 66.2 °F - 50.0 °F 56% 30.19 in 10.0 mi NW 16.1 mph - N/A   Clear
7:47 AM 68.0 °F - 51.8 °F 56% 30.19 in 10.0 mi NW 9.2 mph - N/A   Scattered Clouds
8:47 AM 73.4 °F - 53.6 °F 50% 30.18 in 10.0 mi NNW 9.2 mph - N/A   Scattered Clouds
9:50 AM 78.8 °F - 51.8 °F 39% 30.17 in 10.0 mi WNW 9.2 mph - N/A   Mostly Cloudy
10:48 AM 80.6 °F 80.3 °F 53.6 °F 39% 30.16 in 10.0 mi WNW 8.1 mph - N/A   Scattered Clouds
11:55 AM 87.8 °F - 48.2 °F 25% 30.15 in 10.0 mi WNW 5.8 mph - N/A   Mostly Cloudy
12:52 PM 86.0 °F 84.2 °F 53.6 °F 33% 30.16 in 10.0 mi ESE 10.4 mph - N/A   Mostly Cloudy
1:50 PM 84.2 °F 83.8 °F 59.0 °F 42% 30.15 in 10.0 mi SSE 17.3 mph - N/A   Mostly Cloudy
2:47 PM 84.2 °F 83.0 °F 55.4 °F 37% 30.14 in 10.0 mi SE 9.2 mph - N/A   Mostly Cloudy
3:47 PM 80.6 °F 81.1 °F 59.0 °F 48% 30.12 in 10.0 mi SE 6.9 mph - N/A   Mostly Cloudy
4:47 PM 75.2 °F - 64.4 °F 69% 30.11 in 10.0 mi Calm Calm - N/A   Mostly Cloudy
5:47 PM 78.8 °F - 53.6 °F 42% 30.13 in 10.0 mi WNW 11.5 mph 17.3 mph N/A   Mostly Cloudy
7:47 PM 71.6 °F - 57.2 °F 60% 30.11 in 10.0 mi NW 11.5 mph - N/A   Mostly Cloudy
8:47 PM 71.6 °F - 57.2 °F 60% 30.11 in 10.0 mi WNW 11.5 mph - N/A   Mostly Cloudy
10:47 PM 73.4 °F - 53.6 °F 50% 30.12 in 10.0 mi NW 6.9 mph - N/A   Mostly Cloudy
11:15 PM 71.6 °F - 53.6 °F 53% 30.12 in 10.0 mi NNW 9.2 mph - N/A   Clear
11:35 PM 69.8 °F - 53.6 °F 56% 30.11 in 10.0 mi NNW 8.1 mph - N/A   Clear
11:55 PM 71.6 °F - 53.6 °F 53% 30.11 in 10.0 mi NW 10.4 mph - N/A   Clear